Regional Weather Roundup
Issued by NWS

Home | Current Version | Previous Version | Text Only | Print | Product List | Glossary Off
Versions: 1 2 3 4 5 6 7 8 9 10 11 12 13 14 15 16 17 18 19 20 21 22 23 24 25 26 27 28 29 30 31 32 33 34 35 36 37 38 39 40 41 42 43 44 45 46 47 48 49 50

000
ASUS43 KMKX 201311
RWRWI

WISCONSIN REGIONAL WEATHER ROUNDUP
NATIONAL WEATHER SERVICE MILWAUKEE/SULLIVAN WI
800 AM CDT SUN APR 20 2014

NOTE: "FAIR" INDICATES FEW OR NO CLOUDS BELOW 12,000 FEET WITH NO
SIGNIFICANT WEATHER AND/OR OBSTRUCTIONS TO VISIBILITY.

WIZ001-002-006>008-014>016-023>028-201400-
NORTHWEST WISCONSIN

CITY           SKY/WX    TMP DP  RH WIND       PRES   REMARKS
SUPERIOR ARPT  SUNNY     32  31  96 SW3       30.07S
ASHLAND        MOSUNNY   43  43 100 W5        30.05S
HAYWARD        PTSUNNY   38  36  92 NE3       30.06S FOG
SIREN          FOG       36  36 100 CALM      30.06S VSB 1/4
RICE LAKE      FOG       43  42  97 CALM      30.08R VSB<1/4
LADYSMITH      MOSUNNY   50  49  95 CALM      30.07S
EAU CLAIRE     CLOUDY    54  51  90 CALM      30.05R
MENOMONIE      DRIZZLE   50  49  95 CALM      30.05S
NEW RICHMOND   FOG       46  46 100 CALM      30.06S VSB<1/4
OSCEOLA        FOG       45  45 100 CALM      30.08F VSB<1/4
$$

WIZ003>005-009-010-017-018-201400-
NORTH CENTRAL WISCONSIN

CITY           SKY/WX    TMP DP  RH WIND       PRES   REMARKS
WOODRUFF       PTSUNNY   46  40  80 CALM      30.08R
RHINELANDER    CLOUDY    49  40  71 SW8       30.08R
EAGLE RIVER    CLOUDY    41  41  99 CALM      30.07R FOG
LAND O LAKES   CLOUDY    46  39  78 S3        30.08R
PHILLIPS       CLOUDY    46  45  95 CALM      30.06R
TOMAHAWK       CLOUDY    46  40  80 CALM      30.08R
MEDFORD        RAIN      48  45  90 S6        30.07S
MERRILL        LGT RAIN  51  43  74 CALM      30.08R
$$

WIZ029-030-035-036-043>047-201400-
CENTRAL WISCONSIN

CITY           SKY/WX    TMP DP  RH WIND       PRES   REMARKS
WAUSAU         CLOUDY    51  43  74 S7        30.07R
MOSINEE        CLOUDY    48  45  87 S7        30.10S
MARSHFIELD     RAIN      51  44  77 S8        30.09R
STEVENS POINT  CLOUDY    52  38  59 S6        30.11S
WAUPACA        CLOUDY    54  41  62 SE7       30.12F
WAUTOMA        CLOUDY    55  39  54 S6        30.13S
WISC RAPIDS    CLOUDY    57  38  48 S7        30.12R
CAMP DOUGLAS   CLOUDY    55  43  62 S8        30.09S
$$

WIZ011>013-019>022-031-037>040-048>050-201400-
NORTHEAST WISCONSIN

CITY           SKY/WX    TMP DP  RH WIND       PRES   REMARKS
ANTIGO         CLOUDY    46  42  89 S7        30.10R
STURGEON BAY   CLOUDY    39  34  81 S13       30.18S WCI  32
GREEN BAY      LGT RAIN  49  43  80 S8        30.15F
MANITOWOC      CLOUDY    41  34  76 S10       30.19S
APPLETON       CLOUDY    48  43  81 S6        30.15F
CLINTONVILLE   CLOUDY    50  43  76 SE5       30.12F
OSHKOSH        CLOUDY    51  40  65 S12       30.14S
$$

WIZ032>034-041-042-053>061-201400-
SOUTHWEST WISCONSIN

CITY           SKY/WX    TMP DP  RH WIND       PRES   REMARKS
LA CROSSE      LGT RAIN  58  44  60 CALM      30.09S
SPARTA         CLOUDY    59  40  49 CALM      30.10S
VIROQUA        CLOUDY    55  45  68 S6        30.09F
BOSCOBEL       PTSUNNY   63  40  42 SW9       30.11S
PRAIRIE DU CHI CLOUDY    61  39  43 S8        30.09S
PLATTEVILLE    FAIR      57  39  50 S7        30.14R
$$

WIZ056-057-062-063-064-067-068-201400-
SOUTH CENTRAL WISCONSIN

CITY           SKY/WX    TMP DP  RH WIND       PRES   REMARKS
BARABOO/DELLS  CLOUDY    55  38  52 S9        30.12S
LONE ROCK      PTSUNNY   58  40  51 S7        30.12F
WATERTOWN      LGT RAIN  49  40  73 SE6       30.17S
MADISON        CLOUDY    53  41  63 S12       30.15S
MIDDLETON      CLOUDY    55  38  52 S7        30.14F
MONROE         PTSUNNY   53  39  58 S13       30.15S
JANESVILLE     MOSUNNY   54  36  50 S12G17    30.17F
$$

WIZ051-052-058>065-066-070>072-201400-
SOUTHEAST WISCONSIN

CITY           SKY/WX    TMP DP  RH WIND       PRES   REMARKS
MILWAUKEE      CLOUDY    50  34  54 S6        30.22R
WAUKESHA       MOSUNNY   48  36  61 S7        30.20S
MILWAUKEE/TIMM MOSUNNY   52  34  50 S8        30.20S
RACINE         CLOUDY    47  36  65 S5        30.23R
BURLINGTON     CLOUDY    49  35  58 S6        30.20S
KENOSHA        CLOUDY    51  33  50 S8        30.21S
FOND DU LAC    CLOUDY    53  38  56 S13       30.15S
SHEBOYGAN      PTSUNNY   43  34  70 SE3       30.19S
WEST BEND      PTSUNNY   50  34  53 S5        30.18S
JUNEAU         CLOUDY    51  35  54 S8        30.18S
$$

LSZ147-162-201400-
LAKE SUPERIOR

STATION/POSITION TIME  TEMP    WIND        PRES    WAVE
                       AIR SEA DIR/SP/G            HT/PER
                 (UTC) (F)     (DEG/KT/KT) (MB)    (FT/S)
DEVILS ISLAND    1300   34     250/ 10/ 11 1018.5R
PORT WING        1240   32     210/  2/  4 1017.9R
SAXON HARBOR     1200             CALM     1017.6R
$$

LMZ867-665-643>646-201400-
LAKE MICHIGAN

STATION/POSITION TIME  TEMP    WIND        PRES    WAVE
                       AIR SEA DIR/SP/G            HT/PER
                 (UTC) (F)     (DEG/KT/KT) (MB)    (FT/S)
NORTHPORT PIER   1200   40     160/ 12/ 20 1021.3S
SISTER BAY       1209   38     180/ 24/ 33   N/A
KEWAUNEE LAKESHO 1200   39     180/ 17/ 19 1022.7R
SHEBOYGAN LAKESH 1300   40     170/ 14/ 16 1023.0F
PORT WASHINGTON  1200   40     170/  6/  8 1023.4
MILWAUKEE LAKESH 1200   44     150/  7/  8   N/A
KENOSHA   LAKESH 1300   44     170/  9/ 10   N/A
$$

TC  - TEMPERATURE IN CELSIUS
VSB - VISIBILITY IN STATUTE MILES
WCI - WIND CHILL INDEX
HX  - HEAT INDEX




USA.gov is the U.S. government's official web portal to all federal, state and local government web resources and services.